Providence, RI

1:18 PM EST on November 22, 2019 (GMT -0500)
Green State

Weather History for KPVD - October, 2019

Change the Weather History Date:

Monday, October 21, 2019

  Actual Average Record
Temperature  
Mean Temperature 57 °F 52 °F  
Max Temperature 66 °F 62 °F 81 °F (1920)
Min Temperature 47 °F 42 °F 23 °F (1972)
Degree Days  
Heating Degree Days 8 13  
Month to date heating degree days 201 214  
Since 1 July heating degree days 244 311  
Cooling Degree Days 0 0  
Month to date cooling degree days 10 6  
Year to date cooling degree days 871 742  
Growing Degree Days 7 (Base 50)    
Moisture  
Dew Point 47 °F    
Average Humidity 71    
Maximum Humidity 93    
Minimum Humidity 48    
Precipitation  
Precipitation T in 0.12 in 2.40 in (1944)
Month to date precipitation 3.35 2.62  
Year to date precipitation 38.82 37.14  
Sea Level Pressure  
Sea Level Pressure 30.07 in    
Wind  
Wind Speed 11 mph (NNE)    
Max Wind Speed 18 mph    
Max Gust Speed 24 mph    
Visibility 10 miles    
Events Rain    
T = Trace of Precipitation, MM = Missing Value Source: NWS Daily Summary

Daily Weather History Graph

Daily Weather History Graph

Search for Another Location

Airport or City:

Astronomy

Oct. 21, 2019 Rise Set
Actual Time 7:04 AM EDT 5:55 PM EDT
Civil Twilight 6:36 AM EDT 6:23 PM EDT
Nautical Twilight 6:03 AM EDT 6:56 PM EDT
Astronomical Twilight 5:31 AM EDT 7:28 PM EDT
Moon No Moon Rise 2:23 PM EDT (10/21)
Length of Visible Light 11h 47m
Length of Day
10h 51m
Waning Gibbous, 48% of the Moon is Illuminated
Oct 21
Waning Gibbous
Oct 27
New
Nov 4
First Quarter
Nov 12
Full
Nov 19
Last Quarter

Hourly Weather History & Observations

Time (EDT) Temp. Dew Point Humidity Pressure Visibility Wind Dir Wind Speed Gust Speed Precip Events Conditions
12:51 AM 53.1 °F 48.9 °F 86% 30.04 in 10.0 mi NE 9.2 mph - 0.00 in   Overcast
1:51 AM 53.1 °F 48.0 °F 83% 30.03 in 10.0 mi NNE 10.4 mph - N/A   Overcast
2:09 AM 53.1 °F 48.0 °F 83% 30.02 in 10.0 mi NNE 10.4 mph - 0.00 in Rain Light Rain
2:51 AM 52.0 °F 48.9 °F 89% 30.01 in 10.0 mi NNE 11.5 mph - 0.00 in   Overcast
3:17 AM 52.0 °F 48.9 °F 89% 30.01 in 10.0 mi NNE 9.2 mph - N/A   Overcast
3:24 AM 53.1 °F 48.9 °F 86% 30.01 in 10.0 mi North 8.1 mph - N/A   Overcast
3:51 AM 52.0 °F 48.9 °F 89% 30.00 in 10.0 mi NE 11.5 mph - N/A   Overcast
4:51 AM 53.1 °F 48.9 °F 86% 30.02 in 10.0 mi NNE 9.2 mph - N/A   Overcast
5:12 AM 53.1 °F 48.9 °F 86% 30.02 in 10.0 mi NNE 12.7 mph - N/A   Overcast
5:51 AM 53.1 °F 48.9 °F 86% 30.04 in 10.0 mi North 10.4 mph - N/A   Mostly Cloudy
6:05 AM 52.0 °F 48.9 °F 89% 30.04 in 10.0 mi NNE 10.4 mph - N/A   Mostly Cloudy
6:51 AM 53.1 °F 50.0 °F 89% 30.05 in 10.0 mi NNE 13.8 mph - N/A   Mostly Cloudy
7:51 AM 53.1 °F 50.0 °F 89% 30.07 in 10.0 mi NNE 11.5 mph - N/A   Mostly Cloudy
8:01 AM 53.1 °F 50.0 °F 89% 30.07 in 10.0 mi NNE 9.2 mph - N/A   Overcast
8:51 AM 54.0 °F 51.1 °F 90% 30.08 in 10.0 mi NNE 10.4 mph - N/A   Mostly Cloudy
9:51 AM 55.9 °F 51.1 °F 84% 30.06 in 10.0 mi NNE 12.7 mph - N/A   Mostly Cloudy
10:51 AM 61.0 °F 50.0 °F 67% 30.07 in 10.0 mi NNE 16.1 mph - N/A   Scattered Clouds
11:51 AM 63.0 °F 46.9 °F 56% 30.07 in 10.0 mi NE 16.1 mph - N/A   Partly Cloudy
12:51 PM 64.9 °F 45.0 °F 48% 30.08 in 10.0 mi NNE 17.3 mph - N/A   Partly Cloudy
1:51 PM 64.9 °F 46.0 °F 50% 30.08 in 10.0 mi NNE 16.1 mph - N/A   Partly Cloudy
2:51 PM 64.9 °F 45.0 °F 48% 30.07 in 10.0 mi NNE 15.0 mph - N/A   Partly Cloudy
3:51 PM 63.0 °F 44.1 °F 50% 30.09 in 10.0 mi NE 10.4 mph - N/A   Partly Cloudy
4:51 PM 62.1 °F 45.0 °F 53% 30.10 in 10.0 mi NNE 12.7 mph - N/A   Partly Cloudy
5:51 PM 57.0 °F 44.1 °F 62% 30.12 in 10.0 mi NNE 8.1 mph - N/A   Partly Cloudy
6:51 PM 54.0 °F 43.0 °F 66% 30.14 in 10.0 mi NNE 8.1 mph - N/A   Clear
7:51 PM 51.1 °F 43.0 °F 74% 30.15 in 10.0 mi NE 6.9 mph - N/A   Clear
8:51 PM 51.1 °F 44.1 °F 77% 30.16 in 10.0 mi NE 5.8 mph - N/A   Clear
9:51 PM 48.9 °F 46.0 °F 90% 30.17 in 10.0 mi North 5.8 mph - N/A   Clear
10:51 PM 50.0 °F 46.9 °F 89% 30.16 in 10.0 mi North 6.9 mph - N/A   Clear
11:51 PM 48.9 °F 46.9 °F 93% 30.15 in 10.0 mi North 4.6 mph - N/A   Partly Cloudy